FW4179 Weather Reports


Display with metric or nautical units.
time (UTC)temp
F
wind
direction
speed
MPH
gust
MPH
rain 1hr
in
rain 24hr
in
rain mn
in
humidity
%
barometer
mb
20260504001600 60 0 0.0 0.0 0.00 0.02 0.01 53 1016.8
20260504000047 61 0 0.0 0.0 0.00 0.02 0.01 51 1016.9
20260503234547 62 0 0.0 4.0 0.00 0.02 0.01 50 1017.1
20260503233046 62 263 2.0 6.0 0.00 0.02 0.01 46 1017.0
20260503231553 63 236 3.0 5.0 0.00 0.02 0.01 48 1016.9
20260503230045 64 0 1.0 4.0 0.00 0.02 0.01 49 1017.1
20260503224541 64 0 0.0 3.0 0.00 0.02 0.01 46 1017.3
20260503223048 64 223 1.0 5.0 0.00 0.02 0.01 45 1017.5
20260503221548 64 308 2.0 4.0 0.00 0.02 0.01 41 1017.7
20260503220049 65 265 2.0 6.0 0.00 0.02 0.01 41 1017.8
20260503214543 65 311 2.0 6.0 0.00 0.02 0.01 43 1017.9
20260503213046 65 277 2.0 6.0 0.00 0.02 0.01 46 1018.1
20260503211555 65 271 3.0 7.0 0.00 0.02 0.01 46 1018.2
20260503210047 64 0 1.0 10.0 0.00 0.02 0.01 46 1018.3
20260503204554 64 256 3.0 8.0 0.00 0.02 0.01 46 1018.5
20260503203049 64 255 3.0 7.0 0.00 0.02 0.01 50 1018.6
20260503201548 64 273 2.0 7.0 0.00 0.02 0.01 50 1019.1
20260503200052 63 263 1.0 8.0 0.00 0.02 0.01 54 1019.3
20260503194548 63 275 4.0 9.0 0.00 0.02 0.01 52 1019.6
20260503193100 62 128 3.0 7.0 0.00 0.02 0.01 52 1019.9
20260503191550 62 231 3.0 8.0 0.00 0.02 0.01 53 1020.0
20260503190059 61 312 2.0 7.0 0.00 0.02 0.01 53 1020.2
20260503184548 60 328 1.0 8.0 0.00 0.02 0.01 58 1020.4
20260503183101 60 233 2.0 7.0 0.00 0.02 0.01 56 1020.6
20260503181545 59 327 3.0 6.0 0.00 0.02 0.01 53 1020.7
20260503180057 58 134 1.0 7.0 0.00 0.02 0.01 58 1020.8
20260503174546 59 0 2.0 8.0 0.00 0.02 0.01 57 1021.1
20260503173108 57 310 3.0 7.0 0.00 0.02 0.01 59 1021.3
20260503171552 57 232 2.0 6.0 0.00 0.02 0.01 64 1021.4
20260503140104 43 134 2.0 7.0 0.00 0.02 0.01 99 1022.5
20260503081548 40 0 0.0 0.0 0.00 0.02 0.01 96 1020.4
20260503071550 42 0 0.0 0.0 0.01 0.02 0.01 96 1020.1
20260503054546 43 0 0.0 0.0 0.00 0.01 0.00 95 1019.9
20260503053047 44 0 0.0 0.0 0.00 0.01 0.00 96 1019.8
20260503051550 44 0 0.0 0.0 0.00 0.01 0.00 96 1019.6
20260503050046 44 0 0.0 0.0 0.00 0.01 0.00 96 1019.5
20260503044548 45 0 0.0 0.0 0.00 0.01 0.01 96 1019.4
20260503043048 45 0 0.0 0.0 0.00 0.01 0.01 95 1019.4
20260503041545 45 0 0.0 0.0 0.00 0.01 0.01 95 1019.4
20260503040050 45 0 0.0 0.0 0.00 0.01 0.01 95 1019.3
20260503034549 45 0 0.0 0.0 0.00 0.01 0.01 94 1019.2
20260503033048 45 0 0.0 0.0 0.00 0.01 0.01 92 1019.1
20260503031545 46 0 0.0 0.0 0.00 0.01 0.01 92 1019.1
20260503030046 46 0 0.0 0.0 0.00 0.01 0.01 92 1019.1
20260503024545 46 0 0.0 0.0 0.00 0.01 0.01 91 1019.1
20260503023052 46 0 0.0 0.0 0.00 0.01 0.01 91 1019.0
20260503021551 47 0 0.0 1.0 0.00 0.01 0.01 90 1018.7
20260503020054 47 0 0.0 0.0 0.00 0.01 0.01 89 1018.6
20260503014617 48 0 0.0 0.0 0.00 0.01 0.01 88 1018.7
20260503013046 48 0 0.0 1.0 0.00 0.01 0.01 88 1018.5
20260503011600 49 0 0.0 1.0 0.00 0.01 0.01 88 1018.4
20260503010052 49 0 0.0 2.0 0.01 0.01 0.01 86 1018.3
20260503004556 50 14 0.0 3.0 0.01 0.01 0.01 84 1018.3
20260503003045 50 0 1.0 4.0 0.01 0.01 0.01 82 1018.0